www.pogodaiklimat.ru

Погода и климат >> Архив погоды >> Австралия >> Виктория >> Хоптаун


ПОГОДА в Хоптауне

  • Прогноз погоды в Хоптауне
  • Монитор погоды в Хоптауне

АРХИВ ПОГОДЫ в Хоптауне

Время (UTC), дата Ветер
(напр.,м/с)
 
Видим.   Явления Облачность Т
(С)
Тd
(С)
f
(%)
Тe
(С)
Тes
(С)
Комфортность P
(гПа)
Po
(гПа)
Тmin
(С)
Tmax
(С)
R
(мм)
R24
(мм)
S
(см)
01 10.07 С 9 н/о н/о +12.8 +5.9 63 +10 +10 1012.0 1002.6
02 10.07 СЗ 9 н/о н/о +14.5 +6.6 59 +12 +12 1010.8 1001.4 +5.0
04 10.07 СЗ 10 н/о н/о +16.6 +3.7 42 +15 +15 1007.2 997.8
05 10.07 СЗ 11 н/о н/о +17.2 +3.8 41 +16 +16 1006.4 997.0
07 10.07 СЗ 10 н/о н/о +16.3 +4.4 45 +15 +15 1005.0 995.6
08 10.07 СЗ 11 н/о н/о +16.3 +3.4 42 +14 +14 1004.1 994.7
10 10.07 СЗ 16 н/о н/о +14.4 +6.3 58 +11 +11 1003.7 994.3
11 10.07 З 12 н/о туман н/о +9.2 +9.1 99 +4 +4 1006.1 996.7
13 10.07 З 8 н/о н/о +9.6 +8.5 93 +5 +5 1006.9 997.5
14 10.07 З 6 н/о {туман} н/о +8.9 +8.0 94 +5 +5 1008.1 998.7 +17.4
16 10.07 З 5 н/о н/о +7.0 +6.4 96 +3 +3 1008.6 999.2
17 10.07 СЗ 5 н/о {туман} н/о +6.5 +6.4 99 +2 +2 1008.7 999.3
19 10.07 СЗ 6 н/о н/о +6.9 +6.8 99 +2 +2 1009.3 999.9
20 10.07 СЗ 7 н/о {туман} н/о +7.8 +6.3 90 +3 +3 1010.1 1000.7
22 10.07 СЗ 6 н/о н/о +8.0 +5.6 85 +4 +4 1011.3 1001.9
23 10.07 СЗ 7 н/о {туман} н/о +8.5 +6.5 87 +4 +4 1011.5 1002.1
01 11.07 З 11 н/о н/о +12.6 +8.7 77 +9 +9 1012.1 1002.7
02 11.07 З 11 н/о н/о +13.1 +8.8 75 +10 +10 1011.6 1002.2 +6.3
04 11.07 З 11 н/о н/о +13.2 +10.9 86 +10 +10 1011.0 1001.6
05 11.07 З 11 н/о в посл. час дождь {туман} н/о +14.0 +11.0 82 +11 +11 1011.5 1002.1
07 11.07 З 7 н/о н/о +14.5 +8.9 69 +13 +13 1012.5 1003.0
08 11.07 З 6 н/о н/о +12.6 +7.9 73 +10 +10 1013.2 1003.7
10 11.07 СЗ 4 н/о н/о +10.9 +8.8 87 +8 +8 1014.2 1004.7
11 11.07 СЗ 5 н/о н/о +11.2 +9.5 89 +8 +8 1014.1 1004.6
13 11.07 СЗ 5 н/о н/о +10.6 +8.7 88 +8 +8 1014.3 1004.8
14 11.07 СЗ 6 н/о н/о +9.8 +9.0 95 +6 +6 1013.7 1004.2 +15.9
16 11.07 СЗ 6 н/о н/о +10.4 +9.5 94 +7 +7 1012.5 1003.0
17 11.07 СЗ 8 н/о н/о +11.5 +9.6 88 +8 +8 1011.8 1002.4
19 11.07 СЗ 8 н/о н/о +11.7 +9.8 88 +8 +8 1010.9 1001.5
20 11.07 СЗ 8 н/о н/о +11.6 +9.9 89 +8 +8 1010.4 1001.0
22 11.07 СЗ 9 н/о н/о +11.4 +10.6 95 +8 +8 1011.0 1001.6
23 11.07 СЗ 9 н/о н/о +12.3 +10.7 90 +9 +9 1011.0 1001.6
01 12.07 З 10 н/о н/о +13.1 +11.5 90 +10 +10 1011.4 1002.0
02 12.07 СЗ 11 н/о н/о +13.6 +11.3 86 +10 +10 1010.5 1001.1 +9.5
04 12.07 З 9 н/о н/о +11.1 +10.9 99 +7 +7 1009.1 999.7
05 12.07 З 8 н/о туман местами н/о +11.3 +11.3 100 +7 +7 1009.2 999.8
07 12.07 З 6 н/о н/о +11.6 +9.5 87 +9 +9 1009.5 1000.1
08 12.07 З 6 н/о в посл. час дождь {туман} н/о +10.6 +9.8 95 +7 +7 1010.0 1000.6
10 12.07 З 8 н/о н/о +8.3 +6.4 88 +4 +4 1012.1 1002.7
11 12.07 З 5 н/о {туман} н/о +8.1 +6.4 89 +4 +4 1012.7 1003.2
13 12.07 З 5 н/о н/о +6.3 +6.0 98 +2 +2 1013.5 1004.0
14 12.07 З 4 н/о {туман} н/о +5.6 +5.3 98 +1 +1 1013.7 1004.2 +14.6
16 12.07 З 5 н/о н/о +5.0 +4.1 94 0 0 1014.4 1004.9
17 12.07 З 6 н/о {туман} н/о +4.7 +4.1 96 -1 -1 1014.8 1005.3
19 12.07 З 7 н/о н/о +4.9 +3.7 92 -1 -1 1015.8 1006.3
20 12.07 З 6 н/о н/о +4.5 +3.9 96 -1 -1 1016.3 1006.8
22 12.07 З 6 н/о н/о +4.4 +4.0 97 -1 -1 1018.6 1009.1
23 12.07 З 6 н/о н/о +5.9 +5.2 95 +1 +1 1019.6 1010.1
01 13.07 З 8 н/о н/о +9.9 +5.7 75 +6 +6 1021.6 1012.1
02 13.07 ЮЗ 9 н/о н/о +11.1 +6.0 71 +7 +7 1022.4 1012.9 +4.3
04 13.07 ЮЗ 9 н/о н/о +11.9 +4.9 62 +9 +9 1022.5 1013.0
05 13.07 ЮЗ 7 н/о н/о +11.1 +4.8 65 +8 +8 1023.3 1013.7
07 13.07 ЮЗ 5 н/о н/о +9.3 +5.9 79 +6 +6 1024.7 1015.1
08 13.07 З 4 н/о н/о +7.7 +5.2 84 +5 +5 1025.4 1015.8
10 13.07 З 5 н/о н/о +6.4 +4.6 88 +2 +2 1027.0 1017.4
11 13.07 З 4 н/о н/о +5.4 +4.1 91 +1 +1 1027.8 1018.2
13 13.07 З 4 н/о н/о +4.0 +3.1 94 -0 -0 1028.0 1018.4
14 13.07 З 4 н/о {туман} н/о +3.8 +3.2 96 -1 -1 1027.8 1018.2 +12.7
17 13.07 З 3 н/о {туман} н/о +2.3 +2.2 99 -2 -2 1027.3 1017.7
19 13.07 СЗ 4 н/о н/о +3.8 +3.7 99 -1 -1 1026.0 1016.4
20 13.07 СЗ 4 н/о н/о +4.7 +4.6 99 0 0 1025.8 1016.2
22 13.07 СЗ 4 н/о н/о +5.2 +5.1 99 +1 +1 1026.6 1017.0
23 13.07 СЗ 5 н/о н/о +6.6 +6.5 99 +2 +2 1026.4 1016.8
01 14.07 З 8 н/о н/о +10.2 +8.8 91 +6 +6 1026.6 1017.0
02 14.07 З 7 н/о н/о +11.4 +10.3 93 +8 +8 1026.0 1016.4 +2.3
04 14.07 З 10 н/о н/о +13.7 +7.9 68 +11 +11 1023.2 1013.6
05 14.07 З 11 н/о н/о +13.2 +8.1 71 +10 +10 1022.9 1013.4
07 14.07 З 8 н/о н/о +11.6 +8.6 82 +8 +8 1023.3 1013.7
08 14.07 З 9 н/о н/о +11.2 +8.4 83 +7 +7 1023.4 1013.8
10 14.07 З 7 н/о н/о +10.3 +9.2 93 +7 +7 1023.5 1013.9
11 14.07 З 7 н/о н/о +9.9 +9.9 100 +6 +6 1023.3 1013.7
13 14.07 ЮЗ 9 н/о н/о +9.1 +8.6 97 +4 +4 1023.3 1013.7
14 14.07 З 9 н/о {туман} н/о +9.1 +8.2 94 +4 +4 1023.5 1013.9 +14.2
16 14.07 З 7 н/о н/о +8.7 +7.9 95 +4 +4 1022.8 1013.3
17 14.07 З 6 н/о {туман} н/о +8.8 +8.0 95 +5 +5 1023.3 1013.7
19 14.07 ЮЗ 5 н/о н/о +8.3 +8.0 98 +4 +4 1024.0 1014.4
20 14.07 З 5 н/о н/о +8.5 +8.2 98 +5 +5 1024.7 1015.1
22 14.07 З 4 н/о н/о +8.2 +8.2 100 +5 +5 1026.2 1016.6
23 14.07 ЮЗ 4 н/о н/о +9.3 +9.3 100 +6 +6 1026.8 1017.2
01 15.07 ЮЗ 8 н/о н/о +11.2 +8.9 86 +8 +8 1027.5 1017.9
02 15.07 ЮЗ 8 н/о н/о +12.2 +9.0 81 +9 +9 1027.0 1017.4 +7.9
04 15.07 ЮЗ 8 н/о н/о +13.3 +9.2 76 +11 +11 1026.0 1016.4
05 15.07 ЮЗ 7 н/о н/о +13.8 +10.0 78 +12 +12 1025.8 1016.2
07 15.07 ЮЗ 6 н/о н/о +12.9 +10.1 83 +11 +11 1026.1 1016.5
08 15.07 ЮЗ 5 н/о н/о +12.5 +9.9 84 +10 +10 1026.7 1017.1
10 15.07 ЮЗ 3 н/о н/о +12.1 +10.3 89 +10 +10 1027.8 1018.2
11 15.07 З 4 н/о н/о +11.9 +10.6 92 +10 +10 1028.0 1018.4
13 15.07 ЮЗ 4 н/о н/о +11.4 +10.6 95 +9 +9 1027.2 1017.6
14 15.07 З 4 н/о н/о +10.9 +10.7 99 +8 +8 1027.2 1017.6 +14.3
16 15.07 ЮЗ 5 н/о н/о +10.3 +9.7 96 +7 +7 1026.9 1017.3
17 15.07 ЮЗ 6 н/о н/о +10.1 +10.0 99 +7 +7 1026.4 1016.8
19 15.07 ЮЗ 4 н/о н/о +10.4 +10.2 99 +8 +8 1025.9 1016.3
20 15.07 З 5 н/о н/о +10.1 +10.1 100 +7 +7 1026.2 1016.6
22 15.07 З 5 н/о н/о +9.9 +9.9 100 +7 +7 1027.0 1017.4
23 15.07 ЮЗ 7 н/о н/о +10.8 +10.5 98 +7 +7 1027.2 1017.6
01 16.07 ЮЗ 7 н/о н/о +11.8 +8.6 81 +9 +9 1027.9 1018.3
02 16.07 З 6 н/о н/о +12.6 +9.2 80 +10 +10 1027.4 1017.8 +9.8
04 16.07 ЮЗ 7 н/о н/о +13.4 +8.5 72 +11 +11 1025.7 1016.1
05 16.07 ЮЗ 7 н/о н/о +13.2 +8.5 73 +11 +11 1025.6 1016.0
07 16.07 З 5 н/о н/о +12.7 +8.6 76 +11 +11 1025.2 1015.6
08 16.07 З 6 н/о н/о +12.4 +7.7 73 +10 +10 1025.4 1015.8
10 16.07 З 5 н/о н/о +11.8 +8.5 80 +9 +9 1025.9 1016.3
11 16.07 З 5 н/о н/о +11.4 +7.1 75 +9 +9 1026.0 1016.4
13 16.07 З 4 н/о н/о +10.7 +6.3 74 +8 +8 1025.9 1016.3
14 16.07 ЮЗ 3 н/о н/о +10.5 +6.3 75 +9 +9 1025.4 1015.8 +13.6
16 16.07 СЗ 3 н/о н/о +7.6 +6.4 92 +5 +5 1023.4 1013.8
17 16.07 СЗ 3 н/о н/о +9.3 +8.1 92 +7 +7 1022.7 1013.2
19 16.07 СЗ 4 н/о н/о +9.8 +8.4 91 +7 +7 1021.6 1012.1
20 16.07 СЗ 4 н/о н/о +9.6 +7.9 89 +7 +7 1021.4 1011.9
22 16.07 СЗ 5 н/о н/о +9.1 +8.8 98 +5 +5 1021.3 1011.8
23 16.07 З 6 н/о н/о +9.8 +9.8 100 +6 +6 1021.4 1011.9

 

Местоположение метеостанции Хоптаун (Виктория, Австралия): широта -35.72 долгота 142.35 высота над уровнем моря 78 м.

В архиве по умолчанию представлена погода в Хоптауне за последнюю неделю. Архивные данные за месяц целиком и за предыдущие месяцы, начиная с января 2011 года, Вы можете получить, выбрав интересующий диапазон дат из раскрывающегося списка и нажав кнопку "Ввод!".


*Определитесь, кто Вы:
робот инопланетянин человек

Внимание! Время в таблицах - всемирное. Для получения местного времени необходимо прибавить поправку, которая равна 10 ч.

Смотрите также архив погоды в соседних городах и на ближайших метеорологических станциях:

Погода в Уолпеапе (Виктория, Австралия) (74 км)
Погода в Нхилле (Виктория, Австралия) (94 км)
Погода в Лонгеренонге (Виктория, Австралия) (106 км)
Погода в Хоршаме (Виктория, Австралия) (106 км)
Погода в Чарльтоне (Виктория, Австралия) (109 км)
Погода в Суон-Хилле (Виктория, Австралия) (113 км)
Погода в Стауэлле (Виктория, Австралия) (154 км)
Погода в Канагулке (Виктория, Австралия) (163 км)
Погода в Милдьюре (Новый Южный Уэльс, Австралия) (168 км)
Погода в Ламеру (Южная Австралия, Австралия) (168 км)

Пояснения к столбцам:

Ветер - указаны скорость ветра в м/с - средняя за 10 мин, порывы в срок и между сроками (в фигурных скобках) и направление, откуда дует ветер: С - северный, СВ - северо-восточный, В - восточный, ЮВ - юго-восточный, Ю - южный, ЮЗ - юго-западный, З - западный, СЗ - северо-западный.
Видимость - горизонтальная дальность видимости в метрах или километрах. При видимости от 1 до 10 км при отсутствии осадков обычно наблюдается дымка, при ухудшении видимости до 1 км и менее - туман. В сухую погоду видимость может ухудшаться дымом, пылью или мглою.
Явления - указаны атмосферные явления, наблюдавшиеся в срок или в последний час перед сроком; фигурными скобками обозначены явления, наблюдавшиеся между сроками (за 1-3 часа до срока); квадратными скобками обозначены град или гололедные отложения с указанием их диаметра в мм.
Облачность - указаны через наклонную черту общая и нижняя облачность в баллах и высота нижней границы облаков в метрах; квадратными скобками обозначены формы облаков: Ci - перистые, Cs - перисто-слоистые, Cc - перисто-кучевые, Ac - высококучевые, As - высокослоистые, Sc - слоисто-кучевые, Ns - слоисто-дождевые, Cu - кучевые, Cb - кучево-дождевые. Подробнее классификацию облаков см. в Атласе облаков (PDF).
T - Температура воздуха - температура, измеренная на высоте 2 м над землей.
Td - Температура точки росы - температура, при понижении до которой содержащийся в воздухе водяной пар достигнет насыщения.
f - Относительная влажность воздуха - влажноcть воздуха, измеренная на высоте 2 м над землей.
Te - Эффективная температура - температура, которую ощущает одетый по сезону человек в тени. Характеристика душности погоды. При расчете учитывается влияние влажности воздуха и скорости ветра на теплоощущения человека.
Tes - Эффективная температура на солнце - температура, которую ощущает человек, с поправкой на солнечный нагрев. Характеристика знойности погоды. Зависит от высоты солнца над горизонтом, облачности и скорости ветра. Ночью, в пасмурную погоду, а также при ветре 12 м/с и более поправка равна нулю.
P - Атмосферное давление - приведенное к уровню моря атмосферное давление.
Po - Атмосферное давление - измеренное на уровне метеостанции атмосферное давление.
Tmin - Минимальная температура - минимум температуры воздуха на высоте 2 м над землей.
Tmax - Максимальная температура - максимум температуры воздуха на высоте 2 м над землей.
R - Количество осадков - Количество выпавших осадков за период времени, мм. При наведении курсора мыши на число - период времени, за который выпало указанное количество осадков.
R24 - Количество осадков - Количество выпавших осадков за 24 часа, мм.
S - Снежный покров - Высота снежного покрова, см. При наведении курсора мыши на число - состояние снежного покрова и степень покрытия местности в баллах.